Weather History for Cody, WY

Change the Weather History Date:

Sunday, November 4, 2012

  Actual Average Record
Temperature  
Mean Temperature 48 °F -  
Max Temperature 60 °F 51 °F 70 °F (1985)
Min Temperature 37 °F 27 °F -8 °F (1935)
Degree Days  
Heating Degree Days 16    
Moisture  
Dew Point 27 °F    
Average Humidity 43    
Maximum Humidity 65    
Minimum Humidity 28    
Precipitation  
Precipitation 0.00 in - - ()
Sea Level Pressure  
Sea Level Pressure 30.21 in    
Wind  
Wind Speed 10 mph (WNW)    
Max Wind Speed 18 mph    
Max Gust Speed 29 mph    
Visibility 10 miles    
Events      
Averages and records for this station are not official NWS values.
T = Trace of Precipitation, MM = Missing Value Source: NWS Daily Summary

Daily Weather History Graph

Daily Weather History Graph

Search for Another Location

Airport:

Trip Planner

Search our weather history database for the weather conditions in past years. The results will help you decide how hot, cold, wet, or windy it might be!

Date:

Astronomy

Nov. 04, 2012 Rise Set
Actual Time 6:58 AM MST 5:00 PM MST
Civil Twilight 6:27 AM MST 5:30 PM MST
Nautical Twilight 5:53 AM MST 6:05 PM MST
Astronomical Twilight 5:19 AM MST 6:39 PM MST
Moon 9:39 PM MST (11/4) 11:46 AM MST (11/4)
Length of Visible Light 11h 03m
Length of Day
10h 01m
Waning Gibbous, 71% of the Moon is Illuminated
Nov 4
Waning Gibbous
Nov 6
Last Quarter
Nov 13
New
Nov 20
First Quarter
Nov 28
Full

Hourly Weather History & Observations

Time (MST) Temp. Windchill Dew Point Humidity Pressure Visibility Wind Dir Wind Speed Gust Speed Precip Events Conditions
12:15 AM 53.6 °F - 21.2 °F 28% 30.12 in 10.0 mi WSW 18.4 mph 25.3 mph N/A   Mostly Cloudy
12:35 AM 53.6 °F - 23.0 °F 30% 30.11 in 10.0 mi WSW 17.3 mph 28.8 mph N/A   Mostly Cloudy
12:55 AM 53.6 °F - 24.8 °F 33% 30.12 in 10.0 mi West 9.2 mph 24.2 mph N/A   Mostly Cloudy
1:15 AM - - - N/A% 30.12 in 10.0 mi West 4.6 mph - N/A   Clear
1:35 AM 51.8 °F - 26.6 °F 38% 30.13 in 10.0 mi NNW 9.2 mph - N/A   Partly Cloudy
1:55 AM 51.8 °F - 24.8 °F 35% 30.13 in 10.0 mi NW 8.1 mph - N/A   Partly Cloudy
1:35 AM 51.8 °F - 24.8 °F 35% 30.13 in 10.0 mi WNW 3.5 mph - N/A   Clear
1:55 AM 48.2 °F - 23.0 °F 37% 30.14 in 10.0 mi WNW 5.8 mph - N/A   Clear
2:15 AM 46.4 °F 45.2 °F 24.8 °F 43% 30.14 in 10.0 mi SSE 3.5 mph - N/A   Clear
2:35 AM 46.4 °F 41.5 °F 24.8 °F 43% 30.13 in 10.0 mi WSW 10.4 mph - N/A   Clear
2:55 AM 51.8 °F - 24.8 °F 35% 30.14 in 10.0 mi WSW 12.7 mph 18.4 mph N/A   Scattered Clouds
3:15 AM - - - N/A% 30.13 in 10.0 mi West 11.5 mph 21.9 mph N/A   Overcast
3:35 AM 51.8 °F - 26.6 °F 38% 30.12 in 10.0 mi WSW 16.1 mph 25.3 mph N/A   Overcast
3:55 AM - - - N/A% 30.12 in 10.0 mi West 12.7 mph 28.8 mph N/A   Overcast
4:15 AM - - - N/A% 30.12 in 10.0 mi West 9.2 mph 19.6 mph N/A   Mostly Cloudy
4:55 AM 51.8 °F - 26.6 °F 38% 30.14 in 10.0 mi West 6.9 mph - N/A   Mostly Cloudy
5:15 AM - - - N/A% 30.14 in 10.0 mi WNW 6.9 mph - N/A   Overcast
5:35 AM - - - N/A% 30.14 in 10.0 mi West 12.7 mph 20.7 mph N/A   Overcast
5:55 AM - - - N/A% 30.14 in 10.0 mi West 15.0 mph 19.6 mph N/A   Overcast
6:15 AM 53.6 °F - 26.6 °F 35% 30.15 in 10.0 mi WNW 9.2 mph - N/A   Overcast
6:35 AM 51.8 °F - 26.6 °F 38% 30.15 in 10.0 mi West 12.7 mph 17.3 mph N/A   Mostly Cloudy
6:55 AM 51.8 °F - 26.6 °F 38% 30.17 in 10.0 mi WNW 8.1 mph 16.1 mph N/A   Scattered Clouds
7:15 AM 51.8 °F - 26.6 °F 38% 30.18 in 10.0 mi NW 4.6 mph - N/A   Overcast
7:35 AM - - - N/A% 30.19 in 10.0 mi NNW 8.1 mph - N/A   Overcast
7:55 AM - - - N/A% 30.20 in 10.0 mi NW 5.8 mph - N/A   Overcast
8:15 AM - - - N/A% 30.20 in 10.0 mi NW 8.1 mph - N/A   Overcast
8:35 AM - - - N/A% 30.20 in 10.0 mi Calm Calm - N/A   Overcast
8:55 AM - - - N/A% 30.21 in 10.0 mi Calm Calm - N/A   Overcast
9:15 AM - - - N/A% 30.21 in 10.0 mi WSW 3.5 mph - N/A   Overcast
9:35 AM - - - N/A% 30.21 in 10.0 mi West 11.5 mph 16.1 mph N/A   Overcast
9:55 AM - - - N/A% 30.21 in 10.0 mi West 11.5 mph 20.7 mph N/A   Mostly Cloudy
10:15 AM - - - N/A% 30.21 in 10.0 mi West 13.8 mph 21.9 mph N/A   Mostly Cloudy
10:35 AM - - - N/A% 30.22 in 10.0 mi West 11.5 mph 23.0 mph N/A   Overcast
11:15 AM - - - N/A% 30.24 in 10.0 mi NW 12.7 mph 24.2 mph N/A   Overcast
11:35 AM - - - N/A% 30.24 in 10.0 mi NW 12.7 mph 17.3 mph N/A   Overcast
11:55 AM - - - N/A% 30.24 in 10.0 mi NW 10.4 mph - N/A   Overcast
12:15 PM 59.0 °F - 30.2 °F 34% 30.25 in 10.0 mi West 12.7 mph 20.7 mph N/A   Overcast
12:35 PM 60.8 °F - 30.2 °F 31% 30.24 in 10.0 mi West 12.7 mph 18.4 mph N/A   Overcast
12:55 PM 59.0 °F - 28.4 °F 31% 30.24 in 10.0 mi West 8.1 mph 16.1 mph N/A   Overcast
1:15 PM 57.2 °F - 28.4 °F 33% 30.24 in 10.0 mi WNW 6.9 mph - N/A   Overcast
1:35 PM 60.8 °F - 28.4 °F 29% 30.24 in 10.0 mi NW 12.7 mph 17.3 mph N/A   Overcast
1:55 PM 59.0 °F - 28.4 °F 31% 30.24 in 10.0 mi West 16.1 mph 20.7 mph N/A   Mostly Cloudy
2:15 PM 59.0 °F - 28.4 °F 31% 30.24 in 10.0 mi West 10.4 mph - N/A   Mostly Cloudy
2:35 PM - - - N/A% 30.24 in 10.0 mi West 10.4 mph 19.6 mph N/A   Mostly Cloudy
2:55 PM 57.2 °F - 28.4 °F 33% 30.25 in 10.0 mi WNW 6.9 mph 18.4 mph N/A   Mostly Cloudy
3:15 PM - - - N/A% 30.26 in 10.0 mi NW 9.2 mph - N/A   Overcast
3:35 PM 57.2 °F - 28.4 °F 33% 30.26 in 10.0 mi NW 10.4 mph 18.4 mph N/A   Mostly Cloudy
3:55 PM - - - N/A% 30.26 in 10.0 mi NW 10.4 mph 17.3 mph N/A   Scattered Clouds
4:15 PM - - - N/A% 30.25 in 10.0 mi NW 11.5 mph - N/A   Partly Cloudy
4:35 PM - - - N/A% 30.26 in 10.0 mi West 3.5 mph - N/A   Clear
4:55 PM - - - N/A% 30.26 in 10.0 mi Calm Calm - N/A   Clear
5:15 PM - - - N/A% 30.26 in 10.0 mi North 5.8 mph - N/A   Clear
5:35 PM - - - N/A% 30.27 in 10.0 mi NE 4.6 mph - N/A   Clear
5:55 PM - - - N/A% 30.28 in 10.0 mi NE 5.8 mph - N/A   Clear
6:15 PM 48.2 °F - 28.4 °F 46% 30.29 in 10.0 mi Calm Calm - N/A   Clear
6:35 PM 46.4 °F 41.9 °F 28.4 °F 50% 30.30 in 10.0 mi NNE 9.2 mph - N/A   Clear
6:55 PM 44.6 °F 39.7 °F 28.4 °F 53% 30.30 in 10.0 mi NNE 9.2 mph - N/A   Clear
7:15 PM 46.4 °F 45.2 °F 30.2 °F 53% 30.29 in 10.0 mi SSE 3.5 mph - N/A   Clear
7:35 PM 44.6 °F 43.1 °F 26.6 °F 49% 30.29 in 10.0 mi South 3.5 mph - N/A   Clear
7:55 PM 44.6 °F 42.2 °F 28.4 °F 53% 30.28 in 10.0 mi SSE 4.6 mph - N/A   Clear
8:15 PM 44.6 °F 41.4 °F 30.2 °F 57% 30.29 in 10.0 mi NNE 5.8 mph - N/A   Clear
8:35 PM 42.8 °F - 30.2 °F 61% 30.29 in 10.0 mi Calm Calm - N/A   Clear
8:55 PM 42.8 °F 41.1 °F 28.4 °F 57% 30.29 in 10.0 mi NNW 3.5 mph - N/A   Clear
9:15 PM 41.0 °F - 28.4 °F 61% 30.30 in 10.0 mi Calm Calm - N/A   Clear
9:35 PM 41.0 °F - 28.4 °F 61% 30.30 in 10.0 mi Calm Calm - N/A   Scattered Clouds
9:55 PM 39.2 °F 37.0 °F 28.4 °F 65% 30.29 in 10.0 mi South 3.5 mph - N/A   Partly Cloudy
10:15 PM 37.4 °F - 26.6 °F 65% 30.28 in 10.0 mi Calm Calm - N/A   Clear
10:35 PM 37.4 °F - 26.6 °F 65% 30.28 in 10.0 mi Calm Calm - N/A   Clear
10:55 PM 39.2 °F - 28.4 °F 65% 30.27 in 10.0 mi Calm Calm - N/A   Clear